Torna al catalogo

COSMOS 1275 DEB

AttivoPO
NORAD 13802·DEBRIS·🇷🇺 Russia

Lanciato Jun 4, 1981 da Plesetsk Cosmodrome

Loading…

Prossimi Passaggi (prossime 24 ore)

TLE

AggiornatoSource: Space-Track

Epoca: Sep 13, 2026, 14:25 UTC

1 13802U 81053GW  26256.60096506  .00000510  00000-0  47214-3 0  9991
2 13802  82.8036  13.9932 0059054 334.5048  38.4863 13.79923422237624

Traccia COSMOS 1275 DEB in tempo reale con AllMySat

Download on the App Store